Location: Kanyonyi
(1.4878°N, 32.2317°E)
Time: 05:31:41
(UTC+00:00)

Daily predictions for brighter satellites

Satellite Brightness Start Highest point End
(mag) Time Altitude Azimuth Time Altitude Azimuth Time Altitude Azimuth
ATLAS 2AS CENTAUR R/B 3.8 01:02:22 45° E 01:02:22 45° E 01:08:43 10° NE
ARIANE 5 R/B 3.8 01:22:30 66° SE 01:22:30 66° SE 09:48:52 10° E
Meteor 2-1 Rocket 4.5 01:47:03 64° NNE 01:47:03 64° NNE 01:51:56 10° N
ALOS 3.9 01:43:04 10° NE 01:47:12 32° ESE 01:48:43 26° SE
Mugunghwa Rocket 4.0 01:48:06 85° SW 01:48:20 89° SSE 01:55:54 10° ENE
Palapa B4 Rocket 3.9 02:00:26 62° NW 02:00:55 65° NNW 02:05:53 10° ENE
ADEOS 3.8 01:56:58 10° N 02:01:15 59° NNW 02:01:15 59° NNW
H-10 deb 3.6 02:00:28 43° NW 02:02:20 60° N 10:25:03 10° E
GPS 2-15 Rocket1 3.1 02:09:15 74° SSE 02:09:15 74° SSE 02:13:51 10° ESE
Cosmos 2278 Rocket 3.6 02:12:15 24° NW 02:12:15 24° NW 02:14:58 10° NNW
CZ-4B R/B 4.0 02:09:15 10° NNE 02:12:36 66° NE 02:12:36 66° NE
Ariane H10-3 3.5 02:12:01 47° WSW 02:14:08 74° S 08:50:16 10° E
BREEZE-M DEB (TANK) 2.9 02:18:10 50° S 02:18:59 65° SE 02:26:35 10° NE
Centaur Rocket 3.5 02:22:23 45° NW 02:23:08 51° N 02:31:39 10° ENE
Meteor 2-10 Rocket 4.4 02:28:27 29° NW 02:28:27 29° NW 02:31:48 10° NNW
Cosmos 1269 Rocket 3.9 02:27:14 10° NNW 02:32:31 80° WSW 02:37:49 10° S
USA 281 4.4 02:32:32 10° NNW 02:36:57 20° WNW 02:36:57 20° WNW
Cosmos 1943 Rocket 3.8 02:32:46 10° S 02:37:49 34° ESE 02:42:52 10° NE
CZ-4B R/B 2.8 02:33:41 10° N 02:37:56 84° WNW 02:41:20 15° SSW
Cosmos 1076 Rocket 3.9 02:37:44 10° N 02:42:04 68° E 02:46:23 10° S
Cosmos 1315 Rocket 2.7 02:39:35 11° S 02:43:26 79° W 02:47:32 10° N
ATLAS 3B CENTAUR R/B 3.7 02:40:23 10° NW 02:47:40 31° NNE 02:51:24 10° E
CZ-4C R/B 2.7 02:44:34 10° S 02:48:52 45° ESE 02:53:13 10° NE
Cosmos 1371 Rocket 4.1 02:46:47 14° SSW 02:51:03 53° WNW 02:56:07 10° N
ATLAS 2AS CENTAUR R/B 4.1 02:49:52 19° W 02:52:04 22° WNW 02:57:46 10° NNW
CZ-4B R/B 1.2 02:49:22 10° S 02:52:41 63° WSW 02:55:56 10° NNW
Cosmos 1689 Rocket 3.4 02:56:28 10° SSE 02:59:16 42° E 03:02:01 10° N
Cosmos 2297 3.9 02:54:08 10° SSW 02:59:41 52° WNW 03:05:14 10° N
Cosmos 2184 Rocket 4.1 02:54:02 10° N 03:00:12 78° E 03:06:22 10° S
Cosmos 2074 Rocket 4.1 02:54:34 10° N 03:00:51 84° E 03:07:10 10° S
HETE-2 4.5 02:58:57 21° W 03:01:37 89° SSE 03:05:43 10° E
Cosmos-2242 4.0 03:00:49 16° SW 03:03:10 25° W 03:06:46 10° NNW
COSMOS 2455 3.0 02:59:10 10° SSW 03:05:00 55° WNW 03:10:50 10° N
Cosmos 2058 3.4 03:02:22 10° NNW 03:06:14 37° W 03:10:07 10° SSW
BREEZE-M DEB (TANK) 4.0 03:08:43 13° WNW 03:09:03 13° WNW 03:10:18 10° NNW
Cosmos 2056 Rocket 4.0 03:05:17 10° SW 03:10:11 39° WNW 03:15:08 10° N
Cosmos 1408 2.9 03:06:47 10° NNW 03:10:16 43° W 03:13:45 10° SSW
RESURS DK-1 2.6 03:06:30 10° SSW 03:10:27 45° WNW 03:14:22 10° N
Cosmos 2221 3.6 03:07:01 10° SSE 03:11:14 48° E 03:15:25 10° NNE
ARIANE 5 DEB (SYLDA) 4.1 02:50:31 14° W 03:11:36 87° N 03:17:09 10° E
PSLV R/B 4.0 03:11:16 14° W 03:13:30 53° N 03:21:29 10° ENE
USA 102 3.1 03:14:01 21° SW 03:15:10 39° W 03:21:14 10° NNW
Cosmos 1892 4.1 03:14:14 10° NW 03:16:54 18° W 03:19:33 10° SW
H-2A R/B 2.8 03:16:14 10° NNE 03:20:04 82° E 03:23:52 10° S
Ariane H10+ 3.4 03:16:21 12° WSW 03:20:13 44° S 03:25:55 10° ESE
Cosmos 1340 2.5 03:19:08 10° N 03:22:52 76° W 03:26:37 10° S
Abrixas rocket 2.4 03:21:20 10° WSW 03:24:04 40° NW 03:26:47 10° NNE
SJ-7 4.4 03:20:03 10° N 03:24:11 77° WNW 03:28:23 10° SSW
ALOS 4.1 03:22:33 10° NW 03:24:19 12° WNW 03:26:07 10° W
GPS 2-18 Rocket1 3.1 03:20:52 10° WNW 03:24:35 80° NNE 03:28:15 10° ESE
H-2A R/B 2.9 03:22:16 10° N 03:25:50 36° WNW 03:29:31 10° SW
ADEOS Rocket 3.6 03:19:36 10° S 03:26:35 57° WSW 03:34:04 10° NNW
COSMO-SKYMED 1 3.0 03:24:15 10° SSE 03:28:34 70° ENE 03:32:52 10° N
Cosmos 1346 Rocket 3.6 03:25:44 10° N 03:29:37 58° E 03:33:31 10° SSE
YAOGAN 6 4.1 03:26:39 10° NNE 03:29:54 39° E 03:33:11 10° S
CZ-3B R/B 3.7 03:22:20 10° W 03:32:20 31° SW 03:36:18 10° SSE
Ariane H10+ 3.1 03:31:45 10° W 03:44:16 55° N 03:48:22 10° ENE
ARIANE 5 R/B 3.8 03:01:34 10° W 03:57:01 71° S 04:01:51 10° E
